Weather Roundup
Issued by NWS Chicago, IL

Home | Current Version | Previous Version | Graphics & Text | Print | Product List | Glossary On
Versions: 1 2 3 4 5 6 7 8 9 10 11 12 13 14 15 16 17 18 19 20 21 22 23 24 25 26 27 28 29 30 31 32 33 34 35 36 37 38 39 40 41 42 43 44 45 46 47 48 49 50
029
NZUS59 KLOT 121303
HRRLOT

CHICAGO AREA WEATHER ROUNDUP
NATIONAL WEATHER SERVICE CHICAGO/ROMEOVILLE IL
700 AM CST FRI FEB 12 2016

NOTE: "FAIR" INDICATES FEW OR NO CLOUDS BELOW 12,000 FEET WITH NO
SIGNIFICANT WEATHER AND/OR OBSTRUCTIONS TO VISIBILITY.

* THESE STATIONS ARE NOT UNDER NWS QUALITY CONTROL. THEY ALSO MAY NOT
  REPORT WEATHER SUCH AS PRECIPITATION OR FOG.

ILZ005-006-012>014-019>023-121400-
NORTHEAST ILLINOIS

CITY           SKY/WX    TMP DP  RH WIND       PRES   REMARKS
OHARE          CLOUDY    19   8  62 W12       30.13F WCI   7
MIDWAY         CLOUDY    21   7  54 W8        30.15F WCI  11
AURORA         CLOUDY    20  11  68 W12       30.15F WCI   8
LANSING*       CLOUDY    20  12  73 W7        30.15F WCI  11
WAUKEGAN       CLOUDY    18   8  65 VRB6G18   30.10F WCI  10
DUPAGE AIRPORT CLOUDY    18   8  65 W10       30.13F WCI   6
WHEELING       CLOUDY    20   7  57 W14       30.14F WCI   7
MORRIS*        MOCLDY    19  12  74 W6        30.16R WCI  10
$$

WIZ051-052-058>065-066-070>072-121400-
SOUTHEAST WISCONSIN

CITY           SKY/WX    TMP DP  RH WIND       PRES   REMARKS
MILWAUKEE      CLOUDY    17   2  51 NW12      30.11S WCI   4
KENOSHA*       CLOUDY    18   8  65 W16       30.10F WCI   3
RACINE*        CLOUDY    18   4  54 NW14      30.12S WCI   4
BURLINGTON     CLOUDY    15   7  68 W13       30.12S WCI   2
WAUKESHA       CLOUDY    12   3  67 W10       30.11S WCI  -1
$$

INZ001>003-010>013-019-020-121400-
NORTHWEST INDIANA

CITY           SKY/WX    TMP DP  RH WIND       PRES   REMARKS
GARY*          NOT AVBL
MICHIGAN CITY* NOT AVBL
RENSSELAER*    NOT AVBL
VALPARAISO     CLOUDY    19  12  74 W8        30.14F WCI   9
$$

LMZ740>746-121400-
SOUTHERN LAKE MICHIGAN

STATION/POSITION TIME  SKY/WX   TEMP WIND        PRES    VSBY
                                AIR  DIR/SP/G
                 (UTC)          (F)  (DEG/KT/KT) (MB)    (MI)
HARRISON CRIB    1200            22  270/ 13/ 15   N/A
BURNHAM HARBOR   1300            21  270/  8/ 12   N/A
CALUMET HARBOR   1200            20  230/  6/  9 1020.3F
BURNS HARBOR     1200            20  220/ 10/ 13 1021.7F
MICHIGAN CITY    1200            19  180/ 12/ 14   N/A
$$

ABBREVIATIONS USED IN REMARKS
   TC - TEMPERATURE IN CELSIUS
  WCI - WIND CHILL INDEX
   HX - HEAT INDEX
  VSB - VISIBILITY
$$




USA.gov is the U.S. government's official web portal to all federal, state and local government web resources and services.